Flag Weather past 2 weeks in Naples, Florida, U.S.A.

Now
57 °F

Clear.


Feels Like: 57 °F
Forecast: 51 / 74 °F
Wind: 3 mph from North

Location: Naples Municipal

Current Time: Nov 28, 2014 at 8:37:07 PM

Latest Report: Nov 28, 2014 at 7:53 PM


Visibility: 10 mi

Pressure: 30.22 "Hg

Humidity: 51%

Dew point: 39 °F

Location of NaplesLocation

Historic Weather in Naples — Graph

°F

Naples temperature yesterday

Maximum temperature yesterday: 72 °F (at 12:53 PM)
Minimum temperature yesterday: 48 °F (at 6:53 AM)
Average temperature yesterday: 60 °F

Past Weeks' High & Low Weather Summary

 TemperatureHumidityPressure
High84 °F (Nov 16, 12:53 PM)100% (Nov 16, 4:53 AM)30.30 "Hg (Nov 16, 4:53 AM)
Low48 °F (Nov 27, 6:53 AM)23% (Nov 28, 3:53 PM)29.88 "Hg (Nov 23, 3:53 PM)
Average68 °F79%30.09 "Hg
* Reported Nov 13 6:53 PM — Nov 28 6:53 PM, Naples, Weather by CustomWeather, © 2014

Note: Actual official high and low records may vary slightly from our data, if they occured in-between our weather recording intervals... More about our weather records

Advertising

Naples weather history for previous 24 hours

 ConditionsComfort  
Time TempWeatherWind HumidityBarometerVisibility
6:53 PM
Nov 28
58 °FClear.5 mph46%30.21 "Hg10 mi
5:53 PM60 °FClear.6 mph41%30.20 "Hg10 mi
4:53 PM64 °FSunny.10 mph30%30.19 "Hg10 mi
3:53 PM67 °FSunny.10 mph23%30.19 "Hg10 mi
2:53 PM67 °FSunny.12 mph25%30.18 "Hg10 mi
1:53 PM66 °FSunny.10 mph32%30.19 "Hg10 mi
12:53 PM66 °FSunny.9 mph36%30.22 "Hg10 mi
11:53 AM63 °FSunny.10 mph45%30.25 "Hg10 mi
10:53 AM61 °FSunny.9 mph50%30.28 "Hg10 mi
9:53 AM57 °FSunny.16 mph53%30.28 "Hg10 mi
8:53 AM53 °FSunny.16 mph56%30.28 "Hg10 mi
7:53 AM50 °FSunny.10 mph59%30.27 "Hg10 mi
6:53 AM49 °FClear.7 mph61%30.25 "Hg10 mi
5:53 AM49 °FClear.10 mph64%30.23 "Hg10 mi
4:53 AM50 °FClear.9 mph63%30.22 "Hg10 mi
3:53 AM51 °FClear.10 mph61%30.21 "Hg10 mi
2:53 AM52 °FClear.12 mph61%30.22 "Hg10 mi
1:53 AM53 °FClear.12 mph59%30.22 "Hg10 mi
12:53 AM54 °FClear.10 mph62%30.22 "Hg10 mi
11:53 PM
Nov 27
55 °FClear.8 mph59%30.23 "Hg10 mi
10:53 PM56 °FClear.12 mph55%30.24 "Hg10 mi
9:53 PM58 °FClear.9 mph51%30.23 "Hg10 mi
8:53 PM61 °FClear.8 mph65%30.23 "Hg10 mi
Weather by CustomWeather, © 2014

See weather overviewHow to use our weather pages